Location: Complexul Astronomic Baia Mare
(47.6577°N, 23.5639°E)
Time: 05:43:15
(UTC+03:00)

ISS - Pass Details

Date: 23 March 2017
Orbit: 399 x 409 km, 51.6° (Epoch: 30 March)

Event Time Altitude Azimuth Distance (km) Brightness Sun altitude
Exits shadow 05:29:47 12° 234° (SW) 1,339 -1.8 -9.7°
Maximum altitude 05:30:14 13° 226° (SW) 1,325 -1.7 -9.6°
Drops below altitude 10° 05:31:44 10° 199° (SSW) 1,469 -1.3 -9.3°
Sets 05:34:44 0° 168° (SSE) 2,324 0.0 -8.8°
